Temp
11 12 11 12 11 11 11 11 12 12 11 11 11 11 11 11 11 11 11 10 10 9 9 9 9 9 9 9 9 9 9 9 9 9 8 8 8 8 8 8 8 8 9 9 9 8 8 9 8
11 12 11 11 12 11 11 11 12 12 12 12 10 11 11 11 11 11 11 10 9 9 9 9 9 9 9 9 9 9 9 9 9 9 9 9 9 9 9 8 8 9 9 9 9 9 9 9 8
11 11 11 12 12 10 9 9 11 11 11 11 12 11 11 11 11 11 11 10 10 10 10 9 9 9 9 9 9 9 9 9 9 9 9 9 9 9 9 8 9 9 9 9 9 9 9 8 8
10 10 11 12 12 11 9 9 10 11 11 11 11 11 11 11 10 10 10 10 10 9 9 9 9 9 9 9 9 9 9 9 9 9 9 9 9 9 9 9 9 9 9 9 9 9 8 8 7
10 10 10 11 11 10 9 10 9 9 11 11 11 11 11 11 10 9 9 9 9 9 9 9 9 9 9 9 9 9 9 9 9 9 9 9 9 9 9 9 9 9 9 9 9 8 8 7 7
11 10 10 9 10 10 10 9 10 10 11 11 11 11 11 10 9 9 9 9 9 8 8 9 9 9 9 9 9 9 9 9 9 9 9 9 9 9 9 9 9 10 10 9 8 8 8 7 8
11 10 9 9 10 10 9 9 10 10 11 11 11 11 11 9 9 9 9 9 9 8 8 8 9 9 8 9 8 9 8 8 9 9 9 9 9 9 9 9 10 10 9 9 8 9 8 8 8
11 10 10 10 10 9 9 9 10 9 11 11 10 10 10 10 9 9 9 9 8 8 8 8 8 8 8 8 8 8 9 9 9 9 9 9 9 9 9 9 10 10 9 9 9 9 9 8 8
11 10 10 11 11 10 10 10 9 10 10 10 10 10 10 10 10 9 9 9 9 8 8 8 8 8 8 8 8 8 8 8 8 9 9 9 9 9 9 9 10 10 9 9 9 9 8 8 8
11 11 11 12 11 10 9 9 9 10 10 11 11 10 10 10 10 9 9 9 8 8 8 8 8 8 8 8 7 8 8 8 8 8 9 10 9 9 9 9 9 9 9 9 9 8 8 8 8
11 10 11 11 11 10 10 9 10 9 11 10 11 10 10 10 10 9 9 9 8 8 8 8 8 8 7 7 7 8 7 8 8 8 9 9 9 9 9 9 9 9 8 9 9 9 8 8 8
10 10 10 11 10 10 9 9 9 9 10 9 9 10 10 10 9 9 9 9 9 8 8 8 8 8 8 7 7 7 7 8 7 8 8 9 9 9 9 9 9 9 9 9 9 8 9 9 8
11 12 12 11 11 10 9 9 9 10 9 9 10 9 9 9 9 8 8 9 9 8 8 8 8 8 7 7 6 6 7 7 7 7 7 8 9 9 9 10 9 9 8 9 9 9 8 8 9
12 12 12 10 10 10 10 9 8 9 10 9 9 9 9 9 9 9 9 9 8 8 9 8 8 8 6 6 6 6 6 7 7 7 7 8 9 9 9 10 10 9 9 9 9 8 8 9 9
12 11 11 10 9 9 9 9 8 8 9 9 9 9 9 9 9 9 8 9 8 8 9 8 8 8 7 7 7 7 7 7 7 7 8 8 8 9 9 9 10 10 9 9 9 9 9 9 9
11 11 12 11 10 10 9 9 9 8 8 9 9 8 9 9 9 9 8 9 9 8 9 9 8 8 8 8 8 8 8 8 8 8 8 8 8 9 9 10 10 9 9 9 9 9 9 9 9
12 12 12 11 10 10 9 9 9 9 8 8 9 8 8 8 8 8 9 9 8 8 8 8 8 8 8 8 9 9 8 8 8 8 8 8 8 8 9 9 9 9 9 10 10 10 9 10 10
13 12 12 11 11 10 10 10 10 10 10 10 9 9 8 8 9 9 9 9 8 8 8 9 9 8 8 9 8 9 9 9 9 8 8 8 8 8 8 9 9 9 9 10 10 10 9 9 9
12 12 12 12 11 10 10 9 9 10 10 10 10 9 9 9 9 9 9 9 9 8 9 8 9 9 9 9 9 9 9 9 9 9 8 8 8 8 8 9 9 9 9 10 10 10 10 10 10
12 12 12 12 12 11 12 11 10 10 10 10 10 10 9 9 9 9 9 9 9 9 9 8 8 8 9 9 8 8 8 9 9 9 8 9 8 8 8 9 8 8 8 9 10 10 10 9 10
13 13 12 13 13 12 12 12 12 10 10 10 10 9 10 10 10 9 10 10 9 10 9 9 8 8 8 8 9 8 9 9 9 9 9 9 8 8 9 8 8 8 9 9 9 9 9 10 10
13 14 13 12 13 11 11 11 13 12 11 12 10 10 10 10 10 10 11 11 10 10 10 10 9 8 8 8 9 9 9 9 9 9 8 8 8 8 8 8 8 8 8 8 9 9 9 9 10
14 14 14 13 13 12 11 10 13 13 13 13 13 11 10 10 10 10 11 10 10 9 9 9 9 9 8 8 8 8 9 9 9 9 9 9 8 8 8 8 8 8 8 9 9 9 9 10 9
14 14 14 12 12 11 13 11 14 14 14 13 13 12 11 9 10 10 10 9 9 9 9 9 9 9 8 8 8 8 9 9 9 9 9 9 9 9 9 9 9 9 10 9 9 9 9 9 9
14 14 13 11 9 9 14 11 15 15 14 14 14 13 12 11 9 10 10 10 10 10 9 9 9 9 8 9 9 9 8 8 8 9 9 9 9 10 9 9 9 9 9 9 9 9 9 9 9
14 15 14 10 9 11 12 12 15 15 14 14 14 13 12 12 11 11 11 11 10 10 10 9 9 8 8 8 9 9 9 8 8 8 8 8 8 9 10 10 9 9 9 9 9 9 9 9 9
15 14 14 14 11 11 14 15 15 16 15 15 14 14 14 13 11 12 11 11 11 11 11 9 9 9 9 9 8 9 9 9 9 8 8 8 8 8 9 9 9 8 8 9 9 8 9 9 9
14 15 14 14 9 10 12 12 15 16 15 15 14 14 13 12 12 12 11 11 11 11 10 10 9 9 9 8 8 8 9 9 9 8 9 9 8 8 8 9 9 9 8 9 9 8 9 9 9
15 14 15 14 14 9 8 13 16 16 15 14 14 14 14 13 13 12 12 11 11 11 10 10 9 9 9 8 9 9 9 9 9 9 9 9 9 8 8 8 9 8 9 9 9 9 9 9 9
15 15 15 14 14 13 12 14 16 15 14 14 14 14 14 14 13 13 13 12 11 11 11 11 10 9 9 9 8 8 8 9 9 9 9 9 9 8 8 8 7 8 8 8 8 8 8 9 9
Height
3161 3160 3159 3160 3164 3161 3160 3163 3162 3163 3163 3162 3163 3164 3167 3165 3166 3169 3165 3168 3169 3172 3174 3176 3178 3180 3181 3183 3184 3185 3187 3187 3188 3189 3190 3190 3190 3192 3194 3195 3196 3197 3198 3197 3198 3198 3198 3198 3199
3161 3161 3161 3161 3163 3162 3164 3164 3164 3165 3165 3163 3164 3164 3165 3165 3165 3165 3165 3167 3170 3173 3176 3178 3179 3180 3182 3184 3186 3186 3186 3187 3188 3190 3190 3190 3192 3193 3195 3196 3197 3199 3199 3199 3199 3198 3200 3201 3201
3163 3162 3163 3162 3162 3163 3164 3163 3165 3166 3166 3166 3165 3164 3163 3163 3164 3165 3166 3168 3171 3173 3176 3178 3180 3182 3183 3184 3186 3188 3188 3187 3188 3190 3192 3192 3193 3194 3196 3198 3199 3200 3200 3200 3200 3202 3203 3203 3203
3163 3165 3164 3163 3164 3165 3165 3165 3165 3166 3166 3166 3165 3163 3162 3162 3163 3164 3166 3169 3171 3173 3175 3178 3180 3182 3183 3185 3186 3188 3189 3189 3190 3191 3193 3194 3195 3197 3198 3200 3201 3202 3202 3202 3203 3205 3205 3206 3206
3164 3163 3163 3163 3163 3166 3165 3163 3164 3166 3168 3166 3164 3162 3162 3162 3162 3165 3167 3170 3172 3174 3176 3178 3180 3182 3183 3184 3186 3188 3189 3191 3192 3193 3195 3197 3199 3199 3200 3201 3203 3203 3204 3205 3207 3208 3207 3207 3207
3164 3164 3161 3158 3163 3165 3165 3165 3166 3166 3168 3167 3165 3164 3164 3163 3165 3166 3168 3170 3172 3174 3176 3178 3180 3182 3184 3186 3187 3188 3190 3191 3193 3195 3196 3199 3200 3201 3202 3203 3204 3206 3206 3208 3209 3210 3210 3210 3211
3165 3162 3160 3159 3162 3164 3165 3164 3165 3168 3169 3169 3167 3166 3165 3164 3166 3167 3169 3169 3170 3172 3174 3178 3180 3182 3185 3186 3188 3189 3191 3192 3194 3196 3197 3200 3202 3203 3204 3205 3207 3208 3209 3211 3212 3213 3214 3215 3214
3164 3162 3161 3164 3165 3164 3165 3165 3168 3170 3170 3170 3169 3168 3167 3166 3168 3169 3170 3170 3170 3172 3174 3177 3180 3182 3185 3187 3188 3189 3191 3193 3195 3198 3199 3201 3204 3205 3205 3206 3209 3210 3213 3214 3215 3217 3217 3218 3218
3165 3165 3163 3164 3166 3166 3165 3165 3167 3169 3170 3170 3170 3170 3169 3169 3169 3170 3171 3171 3170 3170 3174 3176 3178 3181 3183 3186 3188 3190 3192 3194 3196 3199 3202 3203 3205 3206 3206 3208 3211 3213 3216 3217 3217 3220 3220 3221 3222
3166 3166 3166 3164 3164 3165 3165 3165 3166 3167 3169 3171 3172 3171 3170 3170 3171 3172 3173 3174 3173 3173 3175 3176 3178 3180 3183 3183 3186 3190 3194 3196 3198 3201 3203 3206 3205 3207 3209 3211 3213 3215 3218 3220 3221 3222 3223 3223 3224
3165 3166 3166 3165 3164 3165 3165 3163 3166 3165 3169 3171 3173 3172 3171 3171 3173 3174 3174 3175 3175 3176 3177 3177 3178 3179 3181 3183 3186 3189 3192 3196 3200 3202 3204 3205 3207 3208 3210 3212 3213 3215 3218 3220 3224 3223 3225 3225 3226
3165 3166 3165 3164 3163 3164 3162 3166 3166 3167 3170 3172 3174 3173 3172 3172 3174 3175 3176 3177 3178 3178 3179 3179 3179 3179 3180 3183 3186 3189 3193 3197 3200 3203 3205 3207 3209 3210 3212 3213 3214 3216 3219 3221 3225 3225 3227 3228 3229
3166 3165 3164 3163 3162 3161 3162 3164 3165 3167 3167 3171 3173 3172 3173 3173 3175 3175 3176 3178 3180 3180 3180 3179 3179 3178 3179 3182 3185 3189 3192 3196 3199 3203 3204 3207 3211 3213 3214 3215 3217 3219 3221 3222 3225 3226 3225 3228 3229
3166 3166 3165 3162 3163 3162 3162 3164 3165 3166 3166 3170 3172 3173 3174 3175 3177 3177 3178 3179 3181 3181 3181 3179 3179 3178 3180 3183 3185 3189 3193 3197 3200 3202 3205 3209 3213 3214 3215 3217 3219 3220 3222 3224 3226 3228 3228 3229 3230
3168 3167 3165 3164 3164 3164 3164 3166 3164 3165 3165 3169 3171 3173 3174 3175 3177 3178 3179 3180 3182 3183 3183 3182 3181 3181 3183 3185 3188 3192 3195 3198 3200 3203 3206 3209 3213 3215 3217 3218 3221 3223 3224 3225 3226 3228 3228 3230 3230
3167 3166 3164 3164 3165 3164 3165 3164 3165 3165 3166 3169 3169 3172 3174 3175 3176 3178 3180 3182 3183 3184 3184 3185 3186 3186 3188 3189 3192 3195 3197 3200 3203 3204 3207 3210 3212 3216 3218 3220 3222 3223 3224 3226 3228 3229 3229 3230 3230
3167 3164 3163 3164 3163 3164 3163 3161 3162 3163 3166 3166 3168 3170 3171 3172 3174 3177 3181 3183 3184 3184 3184 3185 3187 3189 3191 3192 3193 3195 3198 3200 3203 3205 3208 3211 3213 3215 3218 3220 3222 3224 3225 3226 3228 3229 3229 3230 3231
3165 3164 3164 3162 3162 3161 3160 3159 3159 3159 3160 3164 3168 3169 3170 3172 3174 3177 3180 3182 3184 3185 3185 3186 3187 3189 3191 3193 3194 3196 3198 3201 3203 3206 3208 3210 3212 3214 3217 3219 3222 3224 3226 3227 3229 3230 3229 3231 3230
3165 3163 3163 3161 3160 3160 3159 3159 3160 3160 3160 3162 3164 3166 3167 3170 3173 3176 3179 3181 3182 3184 3186 3186 3187 3189 3191 3193 3195 3197 3200 3203 3205 3206 3208 3210 3210 3212 3215 3218 3221 3224 3226 3228 3228 3231 3231 3231 3231
3163 3161 3161 3161 3159 3160 3159 3157 3156 3156 3157 3160 3161 3163 3164 3167 3169 3172 3176 3179 3181 3183 3185 3186 3187 3188 3191 3193 3195 3198 3200 3203 3204 3206 3208 3209 3210 3210 3212 3215 3220 3223 3225 3227 3229 3230 3230 3231 3231
3160 3158 3160 3160 3158 3157 3157 3155 3154 3152 3153 3155 3156 3159 3162 3164 3166 3168 3172 3175 3178 3180 3183 3185 3187 3189 3189 3191 3194 3196 3198 3201 3203 3205 3207 3207 3208 3209 3210 3213 3217 3220 3223 3225 3227 3229 3229 3230 3231
3156 3155 3156 3158 3157 3156 3156 3154 3150 3150 3149 3149 3151 3153 3154 3158 3161 3165 3168 3172 3175 3179 3181 3184 3185 3187 3189 3189 3191 3195 3197 3200 3203 3205 3205 3206 3207 3207 3208 3210 3215 3219 3221 3223 3225 3226 3227 3228 3229
3153 3152 3153 3153 3155 3155 3154 3155 3147 3146 3144 3144 3147 3146 3151 3155 3159 3161 3164 3168 3173 3176 3179 3182 3184 3185 3186 3187 3189 3191 3195 3197 3199 3202 3203 3204 3205 3207 3209 3211 3215 3218 3220 3221 3222 3223 3224 3226 3226
3151 3151 3151 3153 3154 3155 3150 3150 3142 3141 3139 3141 3143 3144 3146 3151 3155 3160 3162 3166 3169 3172 3175 3179 3180 3182 3183 3184 3187 3188 3191 3193 3194 3197 3199 3201 3203 3205 3207 3210 3213 3215 3216 3217 3220 3221 3222 3223 3224
3146 3149 3150 3154 3155 3152 3146 3146 3139 3138 3137 3137 3137 3140 3143 3147 3151 3156 3158 3161 3165 3169 3172 3175 3175 3177 3180 3181 3183 3184 3186 3189 3191 3192 3194 3197 3200 3203 3205 3207 3209 3211 3214 3215 3216 3219 3220 3221 3221
3143 3144 3146 3152 3150 3147 3146 3142 3137 3136 3135 3134 3134 3135 3139 3143 3148 3152 3156 3159 3162 3165 3168 3170 3174 3174 3176 3178 3180 3182 3183 3185 3188 3189 3191 3192 3195 3200 3202 3204 3206 3208 3210 3211 3212 3215 3216 3217 3218
3140 3140 3142 3143 3144 3145 3143 3139 3134 3134 3133 3133 3134 3133 3134 3139 3143 3148 3153 3156 3159 3162 3165 3168 3170 3173 3175 3176 3178 3179 3180 3182 3183 3185 3187 3190 3191 3194 3197 3200 3202 3203 3206 3208 3209 3211 3212 3213 3214
3135 3138 3140 3140 3145 3147 3140 3138 3133 3132 3133 3133 3134 3133 3134 3137 3142 3147 3150 3154 3157 3159 3162 3164 3166 3170 3172 3172 3174 3176 3177 3179 3180 3181 3183 3186 3189 3191 3194 3196 3199 3201 3203 3205 3207 3209 3210 3211 3211
3133 3133 3134 3136 3137 3137 3141 3134 3131 3129 3131 3132 3135 3135 3135 3137 3140 3144 3148 3152 3156 3156 3158 3161 3162 3165 3167 3168 3169 3171 3173 3174 3176 3176 3178 3180 3184 3187 3190 3193 3196 3198 3200 3202 3203 3205 3205 3206 3207
3128 3128 3129 3130 3132 3132 3133 3131 3129 3128 3129 3133 3135 3136 3137 3138 3140 3142 3146 3150 3152 3153 3155 3157 3159 3160 3163 3164 3165 3167 3168 3169 3171 3172 3174 3176 3179 3182 3185 3188 3190 3194 3196 3198 3199 3200 3202 3202 3203
Wind_Speed
3 5 6 8 5 5 11 7 11 12 9 4 5 5 5 8 9 3 11 21 21 18 17 18 16 11 10 10 9 7 6 7 9 9 9 12 14 13 12 12 12 11 11 12 13 14 15 15 14
4 3 5 1 3 10 7 7 14 7 3 7 7 6 8 10 11 8 10 22 19 16 15 15 14 13 11 10 9 7 6 8 10 9 9 12 14 12 12 13 13 12 13 14 15 16 17 14 14
4 4 2 3 6 7 8 10 10 10 7 2 6 4 9 13 13 13 13 21 19 17 16 15 13 12 11 11 10 7 8 9 11 10 10 14 14 13 13 14 15 14 15 16 17 16 14 13 14
7 4 4 1 9 5 4 5 14 10 2 1 1 8 6 9 8 9 18 20 17 17 16 14 13 11 10 10 9 7 8 10 11 11 11 13 13 15 17 17 16 16 18 18 17 16 15 15 15
5 7 9 9 10 3 2 4 18 9 5 3 8 9 3 6 10 13 16 17 16 15 15 14 12 10 9 9 9 8 8 9 11 13 13 14 15 17 17 17 17 18 20 18 18 16 17 17 17
11 17 11 5 10 0 2 10 14 11 5 5 11 5 6 12 9 12 16 15 17 17 15 15 15 14 12 10 9 9 12 9 12 14 14 14 15 16 17 17 19 21 20 19 18 17 17 15 15
26 16 10 9 3 6 2 5 15 11 5 3 8 3 3 13 13 12 13 16 17 18 17 18 18 17 14 11 10 10 12 13 14 15 15 15 15 16 17 19 22 21 20 20 18 17 21 22 21
15 19 12 1 15 6 7 9 12 10 4 3 5 7 7 16 15 13 7 10 14 17 17 18 19 16 14 13 12 12 14 15 16 16 16 15 15 17 19 21 22 20 20 18 17 15 16 19 19
14 10 9 8 6 12 8 7 15 13 4 1 1 3 9 13 12 11 12 9 6 13 17 16 17 16 18 16 16 15 15 16 18 18 17 16 16 18 20 23 22 20 19 17 17 16 19 18 19
11 8 4 7 5 21 12 16 21 13 11 0 5 6 7 12 13 11 10 11 12 10 8 11 13 16 17 19 20 17 16 17 18 18 19 13 16 19 21 23 22 20 19 16 17 17 18 16 15
7 5 2 9 2 19 17 15 15 13 12 4 8 6 6 9 15 14 11 9 10 10 7 8 10 15 18 21 19 20 19 18 20 21 19 18 13 19 23 24 24 22 20 17 16 17 13 11 10
2 1 4 8 1 14 21 15 14 9 6 8 2 10 4 9 15 14 15 12 9 7 6 4 8 6 15 21 22 21 20 20 20 23 19 17 15 20 24 25 24 22 19 17 17 16 16 14 10
5 2 6 7 5 4 7 18 12 12 13 10 5 4 7 13 11 9 10 12 11 10 4 2 4 6 15 23 24 24 23 23 24 20 18 20 18 21 23 24 24 22 19 16 18 17 15 9 8
4 3 1 3 4 3 7 14 13 15 16 14 5 8 12 11 9 5 6 7 8 13 5 5 7 9 17 20 20 23 24 18 19 17 17 16 18 20 23 22 23 22 19 15 14 18 13 12 10
2 5 6 4 2 6 10 13 13 19 14 14 8 11 10 9 7 3 1 2 4 11 7 4 7 16 20 17 16 17 19 17 17 16 18 17 18 20 23 22 21 20 18 16 15 13 13 13 11
6 10 11 8 7 5 13 13 19 16 12 13 10 11 11 8 7 4 5 3 5 10 1 5 12 19 19 20 18 16 15 14 15 17 17 18 18 20 22 21 19 20 18 17 16 15 13 13 12
10 11 13 10 13 6 11 11 10 22 16 18 15 19 17 11 9 8 9 4 3 8 2 6 14 16 14 14 15 16 17 17 20 17 18 18 16 19 21 22 20 18 18 18 16 15 11 11 9
8 13 19 17 9 10 8 10 11 13 16 11 21 21 23 22 16 12 8 6 4 3 6 8 13 16 13 15 14 15 16 17 17 18 20 19 18 21 22 23 21 18 17 20 18 13 14 11 7
17 22 22 9 4 4 6 16 12 14 23 16 25 24 27 24 16 17 10 8 3 5 8 6 9 11 15 13 9 10 15 19 17 16 20 19 17 20 20 22 20 20 18 19 19 18 15 13 12
16 15 11 5 9 5 9 9 16 19 20 13 17 24 30 26 23 18 16 13 7 2 9 9 8 8 13 15 13 12 14 16 17 17 17 21 15 14 24 23 19 15 15 19 18 15 14 14 15
15 18 15 10 7 11 7 14 15 23 25 23 28 27 29 27 24 20 17 11 11 5 5 8 7 9 11 16 19 18 18 17 16 18 17 14 12 10 14 24 25 18 14 18 17 19 18 17 17
21 14 19 21 15 7 16 7 9 24 22 19 27 28 24 35 29 23 15 11 9 8 6 9 8 10 10 14 17 17 15 13 15 14 17 14 14 12 8 20 26 22 17 18 18 19 20 18 17
12 6 12 15 18 11 13 9 6 12 24 21 21 24 29 34 33 25 20 13 8 8 11 10 10 9 8 13 17 19 16 14 14 14 15 16 17 17 18 19 23 23 21 19 18 18 20 20 19
11 11 9 14 18 6 21 17 14 13 11 12 18 27 25 35 30 25 22 22 18 16 11 14 20 13 12 13 16 21 20 17 15 15 15 16 15 17 18 20 21 22 19 15 17 14 18 19 18
13 17 5 2 4 6 11 10 17 12 12 15 14 16 24 30 34 33 28 24 21 23 20 18 14 17 13 14 16 16 18 20 18 16 17 14 16 19 20 20 18 18 18 19 19 17 18 16 16
15 19 12 6 3 4 9 7 14 21 11 10 12 11 22 28 28 25 24 19 19 18 19 25 12 10 16 18 17 16 18 22 22 21 19 20 18 18 18 20 19 18 19 20 20 19 18 16 16
22 15 14 12 2 1 7 17 24 21 11 7 6 9 18 23 27 21 20 20 22 21 15 15 14 14 13 13 19 18 19 21 22 22 23 24 23 20 20 21 20 19 19 20 20 19 19 18 17
24 20 9 7 4 4 7 10 18 19 14 14 8 0 8 21 22 21 19 12 12 16 15 17 16 16 17 17 20 20 17 20 22 24 25 26 24 21 22 22 22 22 22 21 20 17 19 19 16
18 24 14 14 8 8 3 10 16 14 13 14 13 5 3 7 13 17 18 25 20 16 15 18 20 19 17 21 18 21 19 16 21 22 22 23 26 23 25 24 24 23 24 22 20 19 19 18 17
13 21 27 17 10 8 4 7 5 6 8 13 17 9 8 10 12 12 14 18 21 21 19 18 19 20 18 16 23 21 23 20 20 20 21 22 25 28 27 26 27 25 20 22 22 21 19 17 19
Wind_Direction
88 38 38 79 68 112 113 143 153 150 138 137 159 168 209 220 210 240 179 174 170 165 161 162 164 159 160 158 158 151 149 163 162 154 154 169 164 152 144 133 133 123 114 112 115 114 101 96 99
103 97 36 258 124 99 115 153 165 186 226 128 177 225 227 236 224 262 198 180 182 168 168 169 167 166 166 163 157 157 142 142 147 138 121 152 151 146 139 138 138 126 124 114 110 97 95 96 96
52 28 320 241 115 97 109 134 139 145 131 152 297 273 256 233 221 238 202 187 177 168 174 172 171 175 170 167 159 159 146 147 143 137 126 129 140 141 136 139 134 132 118 110 102 100 105 105 106
46 29 328 313 174 159 81 131 157 158 116 357 301 305 266 234 199 209 196 188 180 177 181 179 173 176 169 165 160 166 157 155 156 145 147 138 132 134 134 137 132 128 115 107 105 104 101 101 106
38 12 9 311 211 135 356 213 161 170 264 289 360 334 187 166 148 172 184 180 178 179 182 173 177 177 178 179 170 180 173 153 154 149 151 142 139 136 137 135 131 121 114 113 110 108 102 101 101
342 352 342 271 178 46 181 178 174 202 239 352 359 329 138 127 132 168 183 186 183 181 191 189 191 190 181 172 172 177 179 166 163 150 150 146 145 137 137 132 128 122 120 118 120 112 102 109 107
43 42 21 187 216 171 220 189 200 198 256 25 15 340 178 121 134 158 185 195 201 203 195 197 200 200 193 188 180 182 180 168 165 157 152 147 143 140 137 133 128 126 128 129 127 112 102 90 92
349 17 68 152 239 246 151 162 194 197 186 7 44 348 145 127 121 118 136 190 209 209 202 198 204 207 204 202 189 185 171 163 155 153 150 145 142 142 139 135 130 133 136 136 119 106 99 94 90
349 356 38 87 171 214 180 188 173 184 168 181 346 34 147 133 127 109 93 84 146 178 198 201 207 208 207 194 186 180 173 164 156 157 147 138 142 146 142 138 137 141 142 134 117 107 95 95 95
322 328 331 27 271 181 166 178 178 185 177 138 3 160 157 129 121 101 99 79 92 120 163 195 203 206 197 189 185 179 173 167 158 154 140 154 144 152 149 142 141 146 143 136 122 112 100 96 104
314 306 357 1 225 199 195 172 179 178 179 138 42 26 162 141 111 97 91 80 102 116 101 150 178 202 199 194 186 179 183 177 163 155 146 146 153 159 156 148 145 150 152 142 125 116 109 102 92
198 324 347 1 201 205 219 208 179 216 200 145 19 18 147 119 107 89 76 75 88 75 94 116 153 174 202 195 185 188 183 185 173 172 166 146 180 171 163 157 152 157 157 144 135 128 116 115 98
228 273 303 28 55 161 204 196 207 252 196 181 129 50 149 130 135 123 94 81 63 35 25 17 220 228 191 184 184 185 184 187 184 173 170 164 186 180 172 163 157 161 160 154 143 149 122 129 114
349 108 338 40 46 190 202 198 223 210 200 186 124 129 153 129 122 121 82 78 31 23 25 44 104 145 160 170 181 185 181 192 184 188 186 180 182 184 180 173 164 168 162 158 155 149 140 132 115
34 288 295 271 233 192 191 200 197 200 184 193 150 160 173 146 158 113 23 40 1 3 357 98 107 126 143 142 146 176 190 191 184 187 181 181 181 187 186 180 172 171 168 161 169 162 145 143 131
302 269 258 255 240 205 216 230 221 214 194 186 160 181 200 192 158 208 274 242 334 340 11 165 155 135 136 140 150 159 167 174 182 183 176 178 179 185 190 188 182 177 178 177 178 181 157 158 158
257 262 274 271 233 251 216 233 237 211 205 199 179 196 228 233 217 218 248 239 323 333 214 183 172 178 159 160 165 169 171 171 172 176 176 178 183 183 197 193 187 185 189 190 192 193 171 178 188
269 278 300 281 254 244 221 219 199 197 187 219 212 191 204 218 224 224 242 265 259 310 156 183 189 190 194 177 179 174 178 175 181 186 184 196 200 189 201 199 191 192 199 206 200 203 187 199 212
277 292 300 285 185 189 232 225 231 226 212 228 214 202 210 219 231 227 234 233 237 208 205 176 190 211 205 196 192 189 182 178 179 187 185 189 183 185 199 201 200 204 209 222 217 219 213 212 219
279 299 242 183 151 136 264 263 244 236 221 253 221 219 217 217 221 221 223 228 206 190 186 192 202 218 214 202 203 208 207 192 182 181 184 184 182 203 203 194 201 200 211 223 224 226 233 243 238
273 273 236 240 205 183 227 250 242 239 237 242 228 221 222 220 220 219 216 223 235 211 178 192 204 196 205 208 204 203 200 203 206 194 187 189 193 195 222 210 200 210 223 222 224 234 241 242 253
283 287 257 240 222 229 224 256 260 230 239 241 224 223 210 212 215 216 211 208 211 188 205 202 209 203 206 220 220 217 215 213 211 195 209 214 200 201 215 189 197 207 221 225 229 236 237 241 238
276 260 256 238 224 259 246 246 278 280 245 251 214 219 220 207 212 214 208 214 222 232 235 236 218 235 229 233 227 229 221 216 211 214 205 216 207 198 204 201 203 216 226 234 243 230 237 243 254
277 246 212 225 227 266 272 224 289 287 290 273 242 224 219 213 218 223 227 235 243 248 249 249 249 251 254 251 239 227 227 222 225 233 220 218 215 210 208 212 211 215 223 232 237 222 233 244 242
265 230 210 193 169 217 227 213 283 303 299 288 270 235 226 215 217 228 233 237 243 246 251 248 280 249 256 253 256 245 233 233 226 230 233 231 227 217 212 212 225 225 221 225 230 229 236 246 250
249 243 214 205 187 230 211 251 279 307 294 279 248 252 217 218 219 223 226 234 241 254 262 258 261 235 240 256 250 249 241 239 237 230 234 235 231 226 222 222 219 224 225 223 232 238 237 238 243
235 237 243 224 210 192 237 262 282 297 288 214 225 238 218 216 218 226 234 241 250 250 262 259 256 239 240 245 243 245 241 241 242 241 237 232 230 232 226 227 225 224 226 227 229 235 234 234 239
231 240 216 210 139 225 261 267 269 291 243 221 241 48 217 214 221 216 211 207 232 234 251 253 250 244 244 249 246 239 239 242 242 238 240 237 234 224 227 233 226 226 227 226 229 238 244 246 249
221 229 226 228 224 180 216 260 289 289 242 240 226 148 154 201 214 220 224 231 244 244 241 238 233 233 246 239 236 237 238 239 243 239 240 237 231 230 226 231 232 230 237 238 239 240 244 247 241
253 233 231 227 221 222 219 268 269 319 222 236 216 204 160 157 191 203 216 226 232 239 240 246 236 227 234 249 237 239 237 238 245 243 241 239 236 231 231 234 234 228 237 238 238 240 242 242 243